YAOGAN-40 01B

Satellite information

Favourite Embed

Satellite Type and Status

PAYLOADIN ORBIT

Key statistics

Satellite YAOGAN-40 01B at a glance.

Uptime

604

Days in orbit

Revolutions

≈ 14.1

Per day

Orbit

LEO

Low Earth Orbit

Inclination

86.0

Latest

Satellite identification and parameters

Extended collection of information and parameters for YAOGAN-40 01B.

Object identification

Identified? True

Debris? False

Object name: YAOGAN-40 01B

International designator: 2023-139C

Object number (NORAD): 57832

Object ID (CCSDS): 57832

Country: PEOPLES REPUBLIC OF CHINA (PRC)

Current information (Y/N): Y

RCS size: LARGE

Orbital parameters

Period: 101.959 minutes

Inclination: 85.9887 deg

SMA: 7229.542 km

Apoapsis: 852.917 km

Periapsis: 849.898 km

RAAN: 83.1212 deg

Eccentricy: 0.0002088

Argument of periapsis: 80.1442 deg

Mean anomaly: 279.9976 deg

Mean motion: 14.12331244 rev/day

Mean motion (dot): 0.0000032 rev/day2

B* drag term: 0.00016368 1/REarth

Two-line elements (TLE)

Creation date: May 5, 2025, 2:11 a.m.

Reference frame: TEME

Reference center: EARTH

Epoch: May 4, 2025, 10:35 p.m. UTC

TLE line 0: 0 YAOGAN-40 01B

TLE line 1: 1 57832U 23139C 25124.94107850 .00000320 00000-0 16368-3 0 9993

TLE line 2: 2 57832 85.9887 83.1212 0002088 80.1442 279.9976 14.12331244 85081

Live tracking on map

Real-time ground track for satellite YAOGAN-40 01B.

In-orbit conjunctions

There are no conjunctions computed for YAOGAN-40 01B, at the moment. Check back to stay up to date, as we update our databases every day.

Go to all conjunctions

Associated space launch

3 Chinese reconnaissance satellites of unknown purposes, officially reported as for "Electromagnetic environment probing" purposes.

YAOGAN-40 01B was lifted into orbit during the mission ‘Long March 6A | Yaogan 40’, on board a Long March 6A space rocket.

The launch took place on Sept. 10, 2023, 4:30 a.m. from Launch Complex 9A.

For more information about the launch, click the button.

Launch to space Long March 6A | Yaogan 40
Long March 6A | Yaogan 40

Agency: N/A

Status: Launch Successful

Launch date: Sept. 10, 2023, 4:30 a.m. UTC

Rocket: Long March 6A

Launch pad: Launch Complex 9A

Location: Taiyuan Satellite Launch Center, People's Republic of China

...

Latest news about this satellite

There are no fresh news available about this satellite. Check back as we update our databases every day.


Newsletter sign-up

Weekly statistics, charts and insights to help you stay on top of the space industry.